Weather History for KAGC - November, 2012

Change the Weather History Date:

Friday, November 23, 2012

  Actual Average Record
Temperature  
Mean Temperature 40 °F -  
Max Temperature 50 °F 49 °F 70 °F (1999)
Min Temperature 30 °F 32 °F 16 °F (2008)
Degree Days  
Heating Degree Days 25    
Moisture  
Dew Point 31 °F    
Average Humidity 62    
Maximum Humidity 87    
Minimum Humidity 38    
Precipitation  
Precipitation 0.01 in - - ()
Sea Level Pressure  
Sea Level Pressure 29.91 in    
Wind  
Wind Speed 12 mph (SW)    
Max Wind Speed 23 mph    
Max Gust Speed 36 mph    
Visibility 9 miles    
Events Rain , Snow    
Averages and records for this station are not official NWS values.
T = Trace of Precipitation, MM = Missing Value Source: NWS Daily Summary

Daily Weather History Graph

Daily Weather History Graph

Search for Another Location

Airport or City:

Trip Planner

Search our weather history database for the weather conditions in past years. The results will help you decide how hot, cold, wet, or windy it might be!

Date:

Astronomy

Nov. 23, 2012 Rise Set
Actual Time 7:15 AM EST 4:56 PM EST
Civil Twilight 6:45 AM EST 5:26 PM EST
Nautical Twilight 6:12 AM EST 6:00 PM EST
Astronomical Twilight 5:39 AM EST 6:32 PM EST
Moon 2:11 PM EST (11/23) 2:32 AM EST (11/23)
Length of Visible Light 10h 41m
Length of Day
9h 41m
Waxing Gibbous, 79% of the Moon is Illuminated
Nov 23
Waxing Gibbous
Nov 28
Full
Dec 6
Last Quarter
Dec 13
New
Dec 20
First Quarter

Hourly Weather History & Observations

Time (EST) Temp. Windchill Dew Point Humidity Pressure Visibility Wind Dir Wind Speed Gust Speed Precip Events Conditions
12:53 AM 43.0 °F 38.2 °F 27.0 °F 53% 30.04 in 10.0 mi South 8.1 mph - N/A   Clear
1:53 AM 45.0 °F 39.7 °F 26.1 °F 48% 30.01 in 10.0 mi South 10.4 mph - N/A   Scattered Clouds
2:53 AM 45.0 °F 39.7 °F 26.1 °F 48% 30.00 in 10.0 mi South 10.4 mph - N/A   Scattered Clouds
3:53 AM 46.0 °F 40.6 °F 26.1 °F 46% 29.98 in 10.0 mi South 11.5 mph - N/A   Clear
4:53 AM 46.0 °F 40.2 °F 26.1 °F 46% 29.96 in 10.0 mi South 12.7 mph - N/A   Clear
5:53 AM 46.9 °F - 27.0 °F 46% 29.94 in 10.0 mi South 12.7 mph - N/A   Clear
6:53 AM 48.2 °F - 28.4 °F 46% 29.90 in 10.0 mi South 11.5 mph - N/A   Clear
7:53 AM 48.0 °F - 30.9 °F 52% 29.91 in 10.0 mi South 12.7 mph - N/A   Overcast
8:02 AM 48.2 °F - 30.2 °F 50% 29.88 in 10.0 mi South 12.7 mph - N/A   Overcast
8:53 AM 50.0 °F - 32.0 °F 50% 29.88 in 10.0 mi South 11.5 mph - N/A   Overcast
9:53 AM 50.0 °F - 36.0 °F 59% 29.89 in 8.0 mi SSW 9.2 mph - 0.00 in Rain Light Rain
10:20 AM 48.2 °F - 39.2 °F 71% 29.86 in 10.0 mi SSW 12.7 mph - 0.00 in Rain Light Rain
10:53 AM 48.9 °F - 42.1 °F 77% 29.88 in 9.0 mi SSW 13.8 mph - 0.01 in Rain Light Rain
11:53 AM 48.9 °F - 42.1 °F 77% 29.86 in 10.0 mi SW 13.8 mph - 0.00 in   Overcast
12:07 PM 48.2 °F - 42.8 °F 82% 29.83 in 2.5 mi SW 11.5 mph 20.7 mph 0.00 in Rain Light Rain
12:34 PM 48.2 °F - 44.6 °F 87% 29.82 in 5.0 mi SW 11.5 mph - 0.00 in   Overcast
12:41 PM 48.2 °F - 44.6 °F 87% 29.82 in 6.0 mi SSW 11.5 mph - 0.00 in   Overcast
12:53 PM 48.0 °F - 44.1 °F 86% 29.84 in 2.5 mi SW 10.4 mph 19.6 mph 0.00 in Rain Light Rain
1:28 PM 48.2 °F - 44.6 °F 87% 29.80 in 5.0 mi SW 10.4 mph - 0.00 in   Overcast
1:53 PM 48.0 °F - 44.1 °F 86% 29.82 in 5.0 mi SW 12.7 mph 19.6 mph 0.00 in   Overcast
2:20 PM 48.2 °F - 42.8 °F 82% 29.79 in 10.0 mi SW 12.7 mph 19.6 mph N/A   Overcast
2:53 PM 48.9 °F - 39.0 °F 69% 29.81 in 10.0 mi WSW 13.8 mph 31.1 mph N/A   Overcast
3:53 PM 50.0 °F - 25.0 °F 38% 29.81 in 10.0 mi WSW 23.0 mph 29.9 mph N/A   Clear
4:53 PM 46.9 °F - 26.1 °F 44% 29.84 in 10.0 mi WSW 20.7 mph 27.6 mph N/A   Scattered Clouds
5:53 PM 44.1 °F 36.2 °F 26.1 °F 49% 29.90 in 10.0 mi West 18.4 mph 35.7 mph N/A   Mostly Cloudy
6:53 PM 37.9 °F 29.2 °F 21.9 °F 53% 29.96 in 10.0 mi West 15.0 mph 32.2 mph N/A   Overcast
7:53 PM 35.1 °F 24.1 °F 21.9 °F 59% 29.99 in 10.0 mi West 19.6 mph 27.6 mph 0.00 in   Overcast
8:53 PM 33.1 °F 23.9 °F 19.9 °F 59% 30.00 in 9.0 mi WNW 12.7 mph 29.9 mph 0.00 in Snow Light Snow
9:32 PM 33.8 °F 25.8 °F 19.4 °F 56% 29.97 in 10.0 mi West 10.4 mph 20.7 mph 0.00 in   Overcast
9:53 PM 32.0 °F 21.2 °F 19.9 °F 61% 30.01 in 10.0 mi WNW 16.1 mph 32.2 mph 0.00 in   Overcast
10:21 PM 32.0 °F 24.2 °F 19.4 °F 60% 29.97 in 10.0 mi WNW 9.2 mph 23.0 mph N/A   Overcast
10:53 PM 30.9 °F 21.2 °F 18.0 °F 59% 30.01 in 10.0 mi West 12.7 mph 25.3 mph N/A   Mostly Cloudy
11:53 PM 30.9 °F 20.7 °F 18.0 °F 59% 30.01 in 10.0 mi West 13.8 mph - N/A   Mostly Cloudy